Regional Weather Roundup
Issued by NWS

Home | Current Version | Previous Version | Text Only | Print | Product List | Glossary Off
Versions: 1 2 3 4 5 6 7 8 9 10 11 12 13 14 15 16 17 18 19 20 21 22 23 24 25 26 27 28 29 30 31 32 33 34 35 36 37 38 39 40 41 42 43 44 45 46 47 48 49 50

000
ASUS43 KDTX 010101
RWRMI
MICHIGAN HOURLY REGIONAL WEATHER ROUNDUP
NATIONAL WEATHER SERVICE DETROIT/PONTIAC MI
900 PM EDT SUN AUG 31 2014

NOTE: "FAIR" INDICATES FEW OR NO CLOUDS BELOW 12,000 FEET WITH NO
SIGNIFICANT WEATHER AND/OR OBSTRUCTION TO VISIBILITY.

MIZ047>049-052>055-059>063-066>070-074>076-081>083-010200-
SOUTHEAST LOWER MICHIGAN

CITY           SKY/WX    TMP DP  RH WIND       PRES   REMARKS
ADRIAN         CLEAR     76  67  73 SW6       29.95R
ALMA           CLEAR     69  67  94 CALM      29.93R FOG
BAD AXE        CLEAR     67  67  97 E5        29.94S
CARO           CLEAR     68  67  97 CALM      29.92S FOG
DETROIT CITY   CLEAR     78  67  68 S6        29.94R
DETROIT        MOCLDY    75  68  78 SE5       29.94S
FLINT          PTCLDY    76  66  71 S3        29.93S
GROSSE ILE     PTCLDY    73  70  88 SE5       29.93S
HILLSDALE      CLEAR     72  70  96 CALM      29.96S
HOWELL         PTCLDY    73  67  83 CALM      29.95R

CITY           SKY/WX    TMP DP  RH WIND       PRES   REMARKS
JACKSON        MOCLDY    73  67  81 CALM      29.95R
LAMBERTVILLE   CLEAR     73  68  83 CALM      29.95R
LANSING        PTCLDY    70  67  90 CALM      29.94S
LAPEER         FAIR      71  68  90 CALM      29.94S
MASON          CLOUDY    71  67  88 CALM      29.94S FOG
MONROE         CLEAR     73  68  83 SE5       29.93R
MT. CLEMENS    CLEAR     73  68  82 S6        29.93R
PONTIAC        PTCLDY    73  66  78 CALM      29.94R
PORT HOPE        N/A     69  65  86 SE5       29.93S
PORT HURON     CLEAR     70  70 100 CALM      29.94S
TRI CITIES     CLEAR     74  68  81 S3        29.92S
TROY           CLEAR     79  67  66 S5        29.95S HAZE
SAGINAW HB     CLOUDY    73  70  88 CALM      29.92S FOG
$$
MIZ043>046-050>051-056>058-064>065-071>073-077>080-010200-
SOUTHWEST LOWER MICHIGAN

CITY           SKY/WX    TMP DP  RH WIND       PRES   REMARKS
BATTLE CREEK   PTCLDY    73  69  87 CALM      29.95F
BENTON HARBOR  CLEAR     72  68  87 CALM      29.91S
BIG RAPIDS     CLEAR     68  66  92 CALM      29.92S
COLDWATER      CLEAR     73  70  90 CALM      29.95R
FREMONT        FAIR      70  67  88 S3        29.91F
HOLLAND        CLEAR     72  68  87 CALM      29.92F
GRAND RAPIDS   PTCLDY    75  67  76 CALM      29.93S
IONIA          FAIR      73  65  75 SW5       29.92S
KALAMAZOO      CLEAR     73  68  84 CALM      29.94S
LUDINGTON      CLEAR     69  67  92 CALM      29.90S
MARSHALL       MOCLDY    70  69  99 CALM      29.94S FOG
MOUNT PLEASANT CLEAR     68  65  89 CALM      29.92S
MUSKEGON       PTCLDY    72  65  78 SE5       29.91F
SOUTH HAVEN    CLEAR     71  68  92 CALM      29.92S
$$
MIZ016>042-010200-
NORTHERN LOWER MICHIGAN

CITY           SKY/WX    TMP DP  RH WIND       PRES   REMARKS
ALPENA         CLEAR     62  61  96 SE3       29.94R
BEAVER ISLAND  PTCLDY    60  59  96 CALM      29.90F
BELLAIRE       CLEAR     63  61  93 CALM      29.90F
CADILLAC       CLEAR     66  65  95 CALM      29.93S
CHARLEVOIX     CLEAR     64  62  93 CALM      29.94S
FRANKFORT      CLEAR     66  61  85 CALM      29.88F
GAYLORD        CLEAR     64  61  90 CALM      29.93F
GRAYLING       CLEAR     64  64 100 CALM      29.94S FOG
HARBOR SPRINGS CLEAR     63  61  92 CALM      29.91S
HOUGHTON LAKE  PTCLDY    66  63  90 CALM      29.94S
MANISTEE       CLEAR     66  63  88 CALM      29.90F
OSCODA         CLEAR     67  62  86 NE6       29.93S
PELLSTON       CLEAR     62  61  96 CALM      29.92S
ROGERS CITY    CLEAR     61  61 100 SE3       29.94S
TRAVERSE CITY  CLEAR     66  62  87 CALM      29.89F
$$
MIZ007>008-015-010200-
EASTERN UPPER MICHIGAN

CITY           SKY/WX    TMP DP  RH WIND       PRES   REMARKS
KINROSS        CLEAR     63  61  94 CALM      29.92S
MACKINAC ISLAN CLEAR     60  60  99 CALM      29.91S
NEWBERRY       CLEAR     59  58  96 SE6       29.89F
S. S. MARIE    PTCLDY    64  60  87 S5        29.91R
$$
MIZ004>006-011>014-085-010200-
CENTRAL UPPER MICHIGAN

CITY           SKY/WX    TMP DP  RH WIND       PRES   REMARKS
MANISTIQUE     PTCLDY    61  60  95 SE7       29.86F
ESCANABA       CLOUDY    64  59  82 SE8       29.85F
MENOMINEE      CLOUDY    66  61  82 S10G16    29.84F
SAWYER-GWINN   CLOUDY    63  59  88 S14       29.82F
$$
MIZ001>003-009>011-084-010200-
WESTERN UPPER MICHIGAN

CITY           SKY/WX    TMP DP  RH WIND       PRES   REMARKS
IRON MOUNTAIN  CLOUDY    65  61  87 SE12      29.81F
HOUGHTON       CLEAR     63  58  83 SE9       29.74F
COPPER HARBOR    N/A     62  56  80 SW16G29   29.73F
$$

ABBREVIATIONS USED IN REMARKS
   TC - TEMPERATURE IN CELSIUS
  WCI - WIND CHILL INDEX
   HX - HEAT INDEX
  VSB - VISIBILITY



USA.gov is the U.S. government's official web portal to all federal, state and local government web resources and services.